Wellsville, NY

8:40 AM EDT on April 25, 2017 (GMT -0400)
Wellsville Municipal-Tarantine

Weather History for KELZ - July, 2013

Change the Weather History Date:

Saturday, July 13, 2013

  Actual Average (KDSV) Record (KDSV)
Temperature  
Mean Temperature 64 °F -  
Max Temperature 73 °F 81 °F 99 °F (1952)
Min Temperature 57 °F 56 °F 45 °F (1973)
Growing Degree Days 14 (Base 50)    
Moisture  
Dew Point 62 °F    
Average Humidity 84    
Maximum Humidity 94    
Minimum Humidity 75    
Precipitation  
Precipitation 0.02 in - - ()
Sea Level Pressure  
Sea Level Pressure 30.26 in    
Wind  
Wind Speed 3 mph (SE)    
Max Wind Speed 9 mph    
Max Gust Speed -    
Visibility 9 miles    
Events Rain    
Averages and records for this station are not official NWS values.
T = Trace of Precipitation, MM = Missing Value Source: NWS Daily Summary

Daily Weather History Graph

Daily Weather History Graph

Search for Another Location

Airport or City:

Trip Planner

Search our weather history database for the weather conditions in past years. The results will help you decide how hot, cold, wet, or windy it might be!

Date:

Astronomy

Jul. 13, 2013 Rise Set
Actual Time 5:47 AM EDT 8:47 PM EDT
Civil Twilight 5:14 AM EDT 9:20 PM EDT
Nautical Twilight 4:31 AM EDT 10:03 PM EDT
Astronomical Twilight 3:41 AM EDT 10:53 PM EDT
Moon 11:08 AM EDT (7/13) 11:19 PM EDT (7/13)
Length of Visible Light 16h 06m
Length of Day
14h 59m
Waxing Crescent, 25% of the Moon is Illuminated
Jul 13
Waxing Crescent
Jul 15
First Quarter
Jul 22
Full
Jul 29
Last Quarter
Aug 6
New

Hourly Weather History & Observations

Time (EDT) Temp. Dew Point Humidity Pressure Visibility Wind Dir Wind Speed Gust Speed Precip Events Conditions
12:56 AM 62.1 °F 54.0 °F 75% 30.21 in 10.0 mi Calm Calm - N/A   Overcast
1:56 AM 61.0 °F 54.0 °F 78% 30.20 in 10.0 mi Calm Calm - N/A   Partly Cloudy
2:56 AM 60.1 °F 55.0 °F 83% 30.20 in 10.0 mi North 3.5 mph - N/A   Clear
3:56 AM 57.0 °F 55.0 °F 93% 30.21 in 10.0 mi North 4.6 mph - N/A   Scattered Clouds
4:56 AM 57.9 °F 55.0 °F 90% 30.20 in 10.0 mi NNE 3.5 mph - N/A   Clear
5:56 AM 59.0 °F 55.9 °F 90% 30.22 in 10.0 mi Calm Calm - N/A   Overcast
6:56 AM 60.1 °F 57.0 °F 90% 30.22 in 10.0 mi Calm Calm - 0.00 in   Overcast
7:56 AM 62.1 °F 57.9 °F 86% 30.23 in 10.0 mi North 3.5 mph - N/A   Overcast
8:56 AM 66.0 °F 60.1 °F 81% 30.24 in 10.0 mi ENE 4.6 mph - N/A   Partly Cloudy
9:27 AM 66.2 °F 60.8 °F 83% 30.26 in 10.0 mi ESE 4.6 mph - N/A   Mostly Cloudy
9:56 AM 66.9 °F 61.0 °F 81% 30.25 in 10.0 mi SE 9.2 mph - N/A   Overcast
10:29 AM 69.8 °F 62.6 °F 78% 30.26 in 10.0 mi East 5.8 mph - N/A   Overcast
10:49 AM 69.8 °F 62.6 °F 78% 30.27 in 10.0 mi SE 6.9 mph - N/A   Overcast
10:56 AM 70.0 °F 63.0 °F 78% 30.25 in 10.0 mi SSE 6.9 mph - N/A   Overcast
11:56 AM 70.0 °F 63.0 °F 78% 30.25 in 10.0 mi SE 3.5 mph - N/A   Overcast
12:15 PM 69.8 °F 62.6 °F 78% 30.28 in 10.0 mi SE 4.6 mph - N/A   Overcast
12:56 PM 68.0 °F 64.0 °F 87% 30.27 in 7.0 mi ESE 3.5 mph - 0.00 in Rain Light Rain
1:16 PM 68.0 °F 64.4 °F 88% 30.29 in 2.5 mi Calm Calm - 0.01 in Rain Light Rain
1:21 PM 68.0 °F 66.2 °F 94% 30.29 in 1.8 mi ESE 3.5 mph - 0.01 in Rain Light Rain
1:24 PM 68.0 °F 64.4 °F 88% 30.29 in 2.0 mi Calm Calm - 0.01 in Rain Light Rain
1:29 PM 68.0 °F 66.2 °F 94% 30.29 in 3.0 mi Calm Calm - 0.02 in Rain Light Rain
1:51 PM 69.8 °F 64.4 °F 83% 30.29 in 10.0 mi Calm Calm - 0.02 in   Overcast
1:56 PM 69.1 °F 64.9 °F 87% 30.27 in 10.0 mi East 3.5 mph - 0.02 in   Overcast
2:56 PM 69.1 °F 64.0 °F 84% 30.27 in 10.0 mi Calm Calm - N/A   Overcast
3:52 PM 71.6 °F 64.4 °F 78% 30.29 in 10.0 mi SE 5.8 mph - N/A   Overcast
3:56 PM 71.1 °F 64.9 °F 81% 30.27 in 10.0 mi ESE 5.8 mph - N/A   Overcast
4:56 PM 72.0 °F 64.9 °F 78% 30.27 in 10.0 mi Calm Calm - N/A   Overcast
5:26 PM 71.6 °F 64.4 °F 78% 30.29 in 10.0 mi SSE 4.6 mph - N/A   Overcast
5:38 PM 71.6 °F 64.4 °F 78% 30.29 in 10.0 mi South 5.8 mph - N/A   Overcast
5:56 PM 70.0 °F 66.0 °F 87% 30.28 in 8.0 mi South 3.5 mph - 0.00 in Rain Light Rain
6:56 PM 71.1 °F 66.0 °F 84% 30.28 in 10.0 mi Calm Calm - 0.00 in   Overcast
7:56 PM 71.1 °F 66.0 °F 84% 30.29 in 10.0 mi Calm Calm - N/A   Overcast
8:56 PM 70.0 °F 64.9 °F 84% 30.29 in 10.0 mi South 4.6 mph - N/A   Mostly Cloudy
9:56 PM 69.1 °F 64.9 °F 87% 30.31 in 10.0 mi Calm Calm - N/A   Mostly Cloudy
10:56 PM 68.0 °F 64.9 °F 90% 30.31 in 10.0 mi South 3.5 mph - N/A   Partly Cloudy
11:56 PM 66.9 °F 64.0 °F 90% 30.32 in 10.0 mi South 4.6 mph - N/A   Clear